Hourly Weather Klaczkowo

Today, 25 July, Sunday

Time Temperature Precipitation Wind Pressure Humidity
00:00 +19°C° 0 mm 3 mps 750 mmHg 68%
01:00 +20°C° 0 mm 3 mps 750 mmHg 65%
02:00 +20°C° 0 mm 3 mps 750 mmHg 67%
03:00 +20°C° 0 mm 3 mps 750 mmHg 68%
04:00 +19°C° 0 mm 3 mps 750 mmHg 69%
05:00 +20°C° 0 mm 3 mps 750 mmHg 68%
06:00 +21°C° 0 mm 3 mps 750 mmHg 68%
07:00 +22°C° 0 mm 4 mps 750 mmHg 68%
08:00 +24°C° 0 mm 3 mps 750 mmHg 64%
09:00 +25°C° 0 mm 3 mps 750 mmHg 61%
10:00 +26°C° 0 mm 3 mps 750 mmHg 57%
11:00 +28°C° 0 mm 3 mps 750 mmHg 51%
12:00 +29°C° 0 mm 3 mps 750 mmHg 45%
13:00 +32°C° 0 mm 4 mps 750 mmHg 39%
14:00 +30°C° 0 mm 3 mps 750 mmHg 41%
15:00 +30°C° 0 mm 3 mps 749 mmHg 43%
16:00 +30°C° 0 mm 3 mps 749 mmHg 45%
17:00 +28°C° 0 mm 3 mps 749 mmHg 52%
18:00 +26°C° 0 mm 3 mps 749 mmHg 59%
19:00 +24°C° 0 mm 2 mps 749 mmHg 66%
20:00 +23°C° 0 mm 2 mps 750 mmHg 67%
21:00 +23°C° 0 mm 2 mps 750 mmHg 69%
22:00 +21°C° 0 mm 2 mps 750 mmHg 70%
23:00 +21°C° 0.1 mm 3 mps 750 mmHg 72%

Tomorrow, 26 July, Monday

Time Temperature Precipitation Wind Pressure Humidity
00:00 +21°C° 0.1 mm 3 mps 750 mmHg 74%
01:00 +21°C° 0.1 mm 3 mps 750 mmHg 76%
02:00 +21°C° 0 mm 4 mps 750 mmHg 74%
03:00 +21°C° 0 mm 4 mps 749 mmHg 72%
04:00 +21°C° 0 mm 5 mps 749 mmHg 70%
05:00 +22°C° 0 mm 5 mps 749 mmHg 67%
06:00 +22°C° 0 mm 5 mps 749 mmHg 65%
07:00 +23°C° 0 mm 5 mps 749 mmHg 62%
08:00 +25°C° 0 mm 5 mps 749 mmHg 61%
09:00 +26°C° 0 mm 6 mps 749 mmHg 59%
10:00 +26°C° 0 mm 6 mps 749 mmHg 57%
11:00 +27°C° 0 mm 5 mps 749 mmHg 58%
12:00 +27°C° 0 mm 5 mps 749 mmHg 58%
13:00 +28°C° 0 mm 5 mps 749 mmHg 58%
14:00 +28°C° 0.1 mm 4 mps 748 mmHg 59%
15:00 +28°C° 0.1 mm 4 mps 748 mmHg 60%
16:00 +28°C° 0.1 mm 4 mps 748 mmHg 61%
17:00 +26°C° 1.7 mm 3 mps 748 mmHg 71%
18:00 +24°C° 1.7 mm 3 mps 748 mmHg 81%
19:00 +21°C° 1.7 mm 2 mps 748 mmHg 92%
20:00 +21°C° 0.3 mm 2 mps 748 mmHg 93%
21:00 +20°C° 0.3 mm 2 mps 748 mmHg 95%
22:00 +20°C° 0.3 mm 2 mps 748 mmHg 96%
23:00 +20°C° 0 mm 2 mps 748 mmHg 96%

Day after tomorrow, 27 July, Tuesday

Time Temperature Precipitation Wind Pressure Humidity
00:00 +19°C° 0 mm 2 mps 748 mmHg 96%
01:00 +19°C° 0 mm 2 mps 748 mmHg 96%
02:00 +19°C° 0 mm 2 mps 748 mmHg 95%
03:00 +19°C° 0 mm 2 mps 748 mmHg 94%
04:00 +19°C° 0 mm 2 mps 748 mmHg 93%
05:00 +20°C° 0 mm 2 mps 748 mmHg 90%
06:00 +21°C° 0 mm 2 mps 748 mmHg 86%
07:00 +23°C° 0 mm 2 mps 748 mmHg 82%
08:00 +24°C° 0.2 mm 3 mps 748 mmHg 79%
09:00 +25°C° 0.2 mm 3 mps 749 mmHg 76%
10:00 +25°C° 0.2 mm 3 mps 749 mmHg 73%
11:00 +25°C° 0.8 mm 4 mps 749 mmHg 75%
12:00 +23°C° 0.8 mm 4 mps 749 mmHg 77%
13:00 +23°C° 0.8 mm 4 mps 749 mmHg 79%
14:00 +25°C° 0.5 mm 4 mps 750 mmHg 72%
15:00 +26°C° 0.5 mm 4 mps 750 mmHg 66%
16:00 +27°C° 0.5 mm 3 mps 750 mmHg 60%
17:00 +26°C° 0 mm 3 mps 750 mmHg 65%
18:00 +25°C° 0 mm 3 mps 749 mmHg 70%
19:00 +24°C° 0 mm 3 mps 749 mmHg 75%
20:00 +22°C° 0.4 mm 3 mps 749 mmHg 78%
21:00 +21°C° 0.4 mm 3 mps 750 mmHg 82%
22:00 +20°C° 0.4 mm 3 mps 750 mmHg 85%
23:00 +20°C° 0 mm 3 mps 750 mmHg 85%

28 July, Wednesday

Time Temperature Precipitation Wind Pressure Humidity
00:00 +19°C° 0 mm 3 mps 750 mmHg 86%
01:00 +19°C° 0 mm 3 mps 750 mmHg 86%
02:00 +19°C° 0.1 mm 3 mps 750 mmHg 88%
03:00 +18°C° 0.1 mm 3 mps 750 mmHg 90%
04:00 +18°C° 0.1 mm 2 mps 750 mmHg 91%
05:00 +19°C° 0 mm 3 mps 750 mmHg 87%
06:00 +21°C° 0 mm 3 mps 750 mmHg 82%
07:00 +22°C° 0 mm 3 mps 750 mmHg 77%
08:00 +25°C° 0 mm 3 mps 750 mmHg 70%
09:00 +26°C° 0 mm 3 mps 750 mmHg 63%
10:00 +28°C° 0 mm 3 mps 750 mmHg 56%
11:00 +29°C° 0 mm 3 mps 750 mmHg 51%
12:00 +30°C° 0 mm 3 mps 749 mmHg 46%
13:00 +31°C° 0 mm 3 mps 749 mmHg 41%
14:00 +30°C° 0 mm 3 mps 749 mmHg 41%
15:00 +30°C° 0 mm 2 mps 749 mmHg 41%
16:00 +30°C° 0 mm 2 mps 749 mmHg 41%
17:00 +29°C° 0 mm 2 mps 749 mmHg 46%
18:00 +28°C° 0 mm 2 mps 749 mmHg 52%
19:00 +26°C° 0 mm 2 mps 748 mmHg 57%
20:00 +24°C° 0.1 mm 2 mps 749 mmHg 65%
21:00 +21°C° 0.1 mm 3 mps 749 mmHg 73%
22:00 +19°C° 0.1 mm 3 mps 749 mmHg 81%
23:00 +19°C° 0 mm 3 mps 750 mmHg 84%

29 July, Thursday

Time Temperature Precipitation Wind Pressure Humidity
00:00 +18°C° 0 mm 3 mps 750 mmHg 87%
01:00 +18°C° 0 mm 3 mps 750 mmHg 90%
02:00 +18°C° 0 mm 3 mps 750 mmHg 90%
03:00 +18°C° 0 mm 2 mps 750 mmHg 90%
04:00 +18°C° 0 mm 2 mps 750 mmHg 89%
05:00 +19°C° 0 mm 2 mps 750 mmHg 85%
06:00 +20°C° 0 mm 2 mps 750 mmHg 81%
07:00 +20°C° 0 mm 3 mps 751 mmHg 77%
08:00 +22°C° 0 mm 3 mps 751 mmHg 70%
09:00 +24°C° 0 mm 3 mps 751 mmHg 64%
10:00 +26°C° 0 mm 3 mps 751 mmHg 58%
11:00 +27°C° 0 mm 3 mps 750 mmHg 53%
12:00 +28°C° 0 mm 3 mps 750 mmHg 48%
13:00 +29°C° 0 mm 3 mps 750 mmHg 44%
14:00 +29°C° 0 mm 3 mps 750 mmHg 43%
15:00 +29°C° 0 mm 3 mps 750 mmHg 43%
16:00 +30°C° 0 mm 4 mps 750 mmHg 42%
17:00 +29°C° 0 mm 3 mps 749 mmHg 48%
18:00 +27°C° 0 mm 2 mps 749 mmHg 53%
19:00 +26°C° 0 mm 2 mps 749 mmHg 59%
20:00 +25°C° 0.1 mm 2 mps 749 mmHg 63%
21:00 +24°C° 0.1 mm 2 mps 749 mmHg 68%
22:00 +22°C° 0.1 mm 3 mps 749 mmHg 72%
23:00 +21°C° 0.6 mm 3 mps 749 mmHg 78%

30 July, Friday

Time Temperature Precipitation Wind Pressure Humidity
00:00 +21°C° 0.6 mm 2 mps 749 mmHg 85%
01:00 +20°C° 0.6 mm 2 mps 749 mmHg 91%
02:00 +20°C° 0.3 mm 2 mps 749 mmHg 92%
03:00 +20°C° 0.3 mm 2 mps 749 mmHg 93%
04:00 +20°C° 0.3 mm 2 mps 749 mmHg 94%
05:00 +21°C° 0 mm 2 mps 749 mmHg 90%
06:00 +23°C° 0 mm 2 mps 749 mmHg 86%
07:00 +23°C° 0 mm 2 mps 749 mmHg 82%
08:00 +24°C° 0 mm 2 mps 749 mmHg 77%
09:00 +25°C° 0 mm 2 mps 749 mmHg 72%
10:00 +26°C° 0 mm 2 mps 749 mmHg 67%
11:00 +26°C° 0 mm 2 mps 749 mmHg 62%
12:00 +27°C° 0 mm 2 mps 749 mmHg 58%
13:00 +28°C° 0 mm 2 mps 749 mmHg 54%
14:00 +28°C° 0.1 mm 2 mps 748 mmHg 54%
15:00 +28°C° 0.1 mm 2 mps 748 mmHg 55%
16:00 +28°C° 0.1 mm 2 mps 748 mmHg 56%
17:00 +27°C° 0.2 mm 2 mps 748 mmHg 61%
18:00 +25°C° 0.2 mm 2 mps 747 mmHg 66%
19:00 +24°C° 0.2 mm 1 mps 747 mmHg 71%
20:00 +24°C° 0 mm 2 mps 747 mmHg 72%
21:00 +23°C° 0 mm 2 mps 747 mmHg 73%
22:00 +21°C° 0 mm 3 mps 747 mmHg 74%
23:00 +20°C° 0 mm 3 mps 748 mmHg 73%
Show more